Lid_Strength_Index
-1 -1 -1 -1 -1 -1 -1 -1 -1 -1 -1 -1 -1 0 0 2 2 4 6 5 4 1 3 7 8 9 8 8 7 8 11 12 12 12 11 8 9 8 8 7 6 5 5 4 2
-1 -1 -1 -1 -1 -1 -1 -1 -1 -1 -1 -1 -0 -0 0 1 3 5 2 1 2 1 7 8 10 10 11 8 9 10 11 11 10 10 10 9 9 9 8 8 9 6 4 3 3
-1 -1 -1 -1 -1 -1 -1 -1 -1 -1 -0 -1 -0 -1 -0 -0 5 5 0 0 0 1 5 6 8 10 11 9 10 10 10 9 10 8 8 9 9 8 8 10 8 7 6 4 4
-1 -1 -1 -1 -1 -1 -1 -1 -1 -1 -0 -1 -1 -1 -0 2 11 3 -0 -0 -0 1 5 7 9 11 11 11 9 11 9 9 8 8 8 9 8 9 9 9 6 5 4 4 4
-1 -1 -1 -1 -1 -1 -1 -1 -1 -1 -1 0 -1 -0 2 6 6 3 -1 -1 1 2 6 8 10 11 12 11 9 10 10 8 8 9 8 8 9 10 10 9 5 4 4 4 4
-0 -0 -1 -1 -1 -1 -1 -1 -1 -1 -1 -1 -1 -1 4 9 3 2 -0 1 2 3 6 8 10 10 11 11 9 9 8 9 9 9 9 9 11 9 10 9 7 5 5 5 4
-0 -0 -1 -1 -1 -1 -1 -1 -1 -1 -1 -1 -1 2 6 7 4 3 2 1 2 3 7 7 7 10 9 10 8 9 11 11 10 10 10 10 11 11 9 9 9 8 6 6 5
-0 -0 -0 -1 -1 -1 -1 -1 -1 -1 -1 -1 -1 4 8 3 4 5 5 4 2 4 6 6 7 9 9 9 10 10 12 14 11 10 10 11 13 11 10 10 10 10 9 8 6
-0 -0 -0 -0 -0 -1 -1 -1 -1 -1 -1 -1 2 6 9 3 6 5 6 7 6 7 7 6 8 11 10 12 13 13 16 14 13 10 11 12 13 11 11 11 11 11 10 8 6
-0 -0 -0 -0 -0 -0 -1 -1 -1 -1 -0 0 2 8 7 7 6 6 6 6 8 8 9 9 10 13 12 14 16 16 15 14 15 12 12 13 13 12 11 11 12 12 11 9 7
-0 -0 -0 -1 -0 -1 -0 1 5 6 4 7 7 8 8 6 5 7 6 8 9 10 13 12 14 15 13 12 12 13 13 14 14 12 12 13 13 12 11 11 12 13 11 10 10
-0 -0 -0 -0 -1 -1 1 5 5 5 8 5 5 7 5 5 9 8 7 10 10 13 12 14 16 13 11 11 11 13 14 15 13 12 13 13 12 12 11 11 11 11 11 11 11
0 -0 -0 -0 -0 0 3 4 2 4 9 7 6 7 7 6 9 9 8 10 12 14 13 15 14 11 10 11 12 13 14 15 14 13 14 15 15 13 12 11 11 11 11 11 10
-0 -0 -0 -0 2 2 4 2 3 5 13 11 9 7 6 7 9 7 7 10 12 14 13 14 12 12 12 12 12 14 12 12 13 15 18 16 20 16 14 13 12 11 11 11 10
0 -0 -0 0 2 4 4 2 3 6 21 10 9 5 6 9 9 9 8 11 13 13 14 15 15 14 13 12 11 13 11 12 13 14 17 17 19 17 14 15 13 12 11 11 10
-0 0 -0 1 2 2 2 2 5 13 20 12 9 9 10 10 9 9 9 10 10 12 13 13 12 12 11 11 10 10 11 12 13 15 19 17 18 19 16 13 13 12 11 10 10
1 1 1 2 4 1 1 4 14 19 11 13 13 10 11 12 11 11 12 13 14 16 16 14 13 12 11 11 10 11 14 18 19 20 20 18 19 17 15 13 12 11 11 10 10
3 0 1 2 2 2 3 9 21 15 14 11 11 10 13 11 12 11 12 13 12 13 15 17 18 13 11 11 13 14 14 18 21 21 20 18 19 16 14 12 10 10 10 10 10
3 1 3 3 2 2 8 15 16 14 11 12 11 13 13 12 12 12 13 12 12 12 15 16 16 12 11 10 10 14 15 13 17 23 21 19 18 15 13 12 11 11 11 11 10
6 4 6 5 1 4 11 14 13 10 9 10 14 13 15 13 14 14 14 11 11 11 10 13 16 13 12 11 11 13 12 16 17 23 23 20 20 18 15 13 12 11 11 11 10
8 7 7 5 3 7 14 14 11 8 8 10 12 13 13 13 14 14 14 12 10 11 10 11 12 14 13 14 14 14 15 15 14 17 20 22 19 15 14 12 12 11 10 10 10
11 13 7 5 9 9 12 12 9 9 7 8 9 10 12 11 13 13 13 12 9 9 12 11 13 16 14 12 12 13 13 13 17 18 18 18 18 12 13 11 10 10 10 10 10
13 13 7 6 13 12 10 10 9 9 9 10 10 9 10 11 13 12 12 10 9 9 11 10 13 17 15 13 12 13 13 13 13 16 19 20 18 12 14 12 10 10 10 9 10
13 13 11 10 11 11 12 12 11 8 9 9 9 8 10 11 10 12 12 10 9 9 7 8 12 14 17 16 13 14 14 13 13 17 17 17 17 14 13 12 11 10 9 9 9
11 14 13 13 12 11 10 11 11 11 9 8 10 10 10 12 11 12 11 11 10 9 10 10 14 13 13 12 12 13 13 13 14 13 15 15 16 14 13 11 10 9 9 9 9
12 13 12 13 13 11 11 13 11 10 10 11 11 10 10 11 11 12 11 12 12 11 11 11 16 13 15 12 13 14 13 12 12 12 14 15 15 12 11 11 10 9 9 9 9
9 9 11 12 13 11 12 11 11 9 9 8 9 10 11 10 8 8 8 8 9 10 11 11 13 15 18 14 14 16 14 13 12 12 12 14 12 12 11 10 9 9 8 9 9